RH
19 22 26 27 27 28 27 27 27 30 32 30 32 33 29 25 24 28 30 27 27 27 26 27 29 28 27 28 25 22 21 20 21 20 16 15 15 15 15 15 14 14 15 15 15 15 15 15 15 15 15 15 15 16 16 16 16 17 18 19 21 23 24 26 28 29 30 31 31 31 32 32 31 31 30 30 30 30 31 31 32 33 35 37 39 42
20 24 27 26 24 24 25 27 27 28 29 29 28 26 22 21 24 28 27 22 22 26 26 27 29 26 26 26 22 19 19 20 19 18 16 15 15 15 15 15 15 15 15 15 15 15 15 15 16 16 16 16 16 16 17 17 17 17 18 19 20 21 23 24 25 27 28 29 29 30 30 30 31 31 30 31 30 29 28 28 28 28 29 29 29 30
22 24 23 22 20 19 23 27 26 25 25 24 23 22 20 22 27 28 25 22 24 29 29 29 29 26 25 26 22 18 18 18 17 17 16 15 15 16 16 16 16 16 16 16 16 16 16 16 16 16 16 16 17 17 18 18 19 19 19 19 19 20 21 22 22 23 24 25 26 27 28 29 30 31 32 32 31 30 29 29 29 29 29 29 28 28
22 21 19 19 18 17 20 24 27 25 21 17 17 18 18 21 25 25 24 26 29 30 30 31 31 29 27 27 25 20 17 17 17 17 17 15 16 16 16 17 17 17 17 17 17 17 17 17 17 17 17 17 18 18 19 19 20 20 20 21 20 20 20 20 20 21 21 22 24 25 27 28 30 32 32 32 32 31 29 29 28 27 27 27 27 26
20 17 16 18 18 17 17 19 23 21 18 19 18 15 15 18 22 24 28 30 30 30 30 31 31 28 27 27 27 23 19 18 18 18 17 16 17 17 18 18 18 18 18 18 18 18 19 19 19 19 19 19 19 19 20 20 21 21 22 22 22 21 21 20 19 19 20 20 22 24 27 29 31 33 33 33 32 28 25 24 22 21 20 21 20 19
15 12 14 18 17 16 15 15 17 16 17 20 18 14 14 17 21 25 29 29 30 30 27 29 29 27 27 29 29 26 23 22 20 19 18 17 18 18 18 19 19 19 19 19 19 19 20 20 21 21 21 21 21 21 21 22 23 24 24 24 23 23 22 21 20 20 20 20 22 24 28 30 32 33 34 34 31 25 22 21 19 18 17 18 17 16
12 12 15 18 17 15 14 14 14 17 19 16 13 14 16 19 23 27 29 28 30 28 24 26 28 26 25 27 29 26 24 24 23 22 20 19 19 19 20 20 19 20 20 20 20 20 20 20 21 22 21 22 21 22 23 24 25 26 26 26 27 26 25 25 24 22 23 23 24 26 29 30 32 33 33 33 30 25 23 22 20 19 18 18 17 16
12 13 14 15 16 14 13 12 12 17 18 11 11 16 18 20 22 26 29 28 30 28 26 27 24 22 21 21 25 25 24 26 25 24 23 22 22 21 21 21 20 21 20 20 20 20 20 20 20 21 21 22 22 22 23 24 26 27 28 29 30 30 30 29 28 27 27 27 28 29 30 30 31 32 31 31 31 28 26 25 23 21 20 19 19 18
12 14 13 13 14 12 12 11 12 15 15 13 16 18 20 21 23 28 29 30 30 27 29 29 21 19 19 19 24 25 25 26 24 24 24 23 23 22 21 22 21 21 21 21 20 20 20 19 19 20 22 23 23 23 24 24 26 27 29 31 32 33 33 33 33 33 32 32 32 32 31 32 32 32 32 32 32 31 29 28 25 23 22 22 22 21
11 11 11 12 13 12 13 13 15 14 12 14 15 17 22 22 23 27 28 30 29 24 27 26 18 18 19 18 24 26 26 26 23 22 23 22 22 21 20 20 20 21 21 21 21 20 20 20 20 21 23 24 25 26 25 25 27 28 30 32 33 35 36 37 37 37 38 37 36 35 34 34 35 34 34 35 35 34 34 32 29 25 24 24 25 25
13 13 12 12 11 11 12 13 14 13 11 13 14 18 20 18 21 28 31 32 26 23 26 23 17 21 21 19 23 26 25 25 23 22 23 23 22 20 19 20 20 20 20 20 20 20 20 21 22 23 24 24 25 26 27 28 28 29 31 32 33 36 38 39 40 41 42 42 41 39 39 39 39 38 38 38 38 38 38 37 33 28 27 27 27 28
16 14 13 12 10 11 12 10 12 13 12 12 14 15 13 12 16 22 28 27 20 21 25 20 18 23 23 19 19 23 24 25 25 23 22 23 20 17 17 18 19 19 20 21 21 20 21 22 23 24 24 24 25 27 28 29 30 31 32 34 34 36 39 41 42 44 45 46 46 44 43 44 44 44 43 42 41 42 41 41 38 32 30 31 31 31
17 14 14 14 11 11 12 9 11 14 14 12 14 16 17 20 18 19 30 27 18 22 21 17 19 21 21 17 15 19 21 23 24 22 20 19 17 16 17 18 18 19 20 21 21 21 22 23 23 24 25 25 26 27 28 30 31 33 34 36 37 38 41 44 45 47 48 50 51 50 49 50 51 50 49 48 47 46 45 45 43 37 33 34 34 34
17 15 15 13 10 10 11 10 10 13 14 13 16 18 21 25 21 23 36 28 17 21 20 17 22 23 19 15 15 17 16 18 21 20 20 20 19 19 19 20 20 20 20 21 21 22 22 23 23 24 25 26 27 28 30 31 33 34 36 38 38 39 43 47 48 51 52 55 56 56 56 57 57 56 56 55 53 53 51 50 49 44 38 36 37 37
15 10 10 11 9 10 13 13 12 14 16 16 17 17 18 24 21 21 29 25 20 26 24 20 22 24 20 15 17 20 17 19 20 19 21 20 20 21 21 22 22 21 20 20 21 22 22 23 23 25 26 27 29 30 32 34 35 37 38 39 40 41 45 49 52 55 57 60 62 64 64 64 64 64 63 62 60 60 59 57 55 50 43 39 39 39
17 10 11 13 11 12 13 14 15 15 15 15 17 15 15 21 26 27 29 27 27 36 39 31 24 23 19 14 19 23 22 22 20 19 21 18 18 22 22 22 21 20 20 20 21 21 22 23 24 26 27 29 31 32 34 36 38 39 39 40 42 43 47 51 56 60 63 66 69 71 71 70 69 69 69 68 67 68 68 65 63 57 49 43 42 43
21 18 18 17 14 14 13 14 17 14 10 12 14 13 14 20 28 32 32 31 33 39 41 30 20 20 17 13 20 25 24 23 22 22 22 18 18 22 21 19 18 19 19 19 20 21 21 23 24 26 29 30 33 35 37 39 41 42 42 43 45 47 50 54 59 64 68 72 74 75 75 75 75 76 76 76 76 77 78 75 71 66 57 49 47 47
20 20 21 19 15 16 16 15 17 15 12 14 12 13 18 23 30 35 33 37 42 41 35 25 19 21 19 16 19 21 20 21 23 24 23 20 19 20 19 16 17 17 18 19 20 21 22 24 25 28 30 33 36 38 41 43 44 45 46 48 49 51 53 57 62 69 73 77 79 79 79 79 80 82 83 83 83 85 85 83 79 74 67 58 54 54
19 18 19 20 17 17 19 17 17 18 15 14 13 16 19 19 26 32 30 31 34 37 37 32 27 23 21 21 20 16 17 19 19 21 22 21 19 18 17 16 17 17 18 20 21 22 24 26 28 31 33 36 40 43 45 46 48 49 50 51 53 54 57 62 68 74 78 81 81 81 82 81 81 82 83 83 85 86 87 86 82 78 74 68 63 62
18 16 16 18 17 17 18 17 20 20 17 17 18 20 22 23 26 28 26 28 31 37 41 38 32 25 20 22 20 15 17 18 17 19 20 20 17 17 17 17 17 18 19 20 22 24 26 28 30 33 37 41 44 47 49 50 52 53 53 55 57 59 63 67 72 77 80 80 80 82 83 83 84 84 84 84 85 86 86 86 84 78 75 73 70 70
18 17 17 18 17 16 17 18 19 18 18 21 21 22 23 24 27 26 26 31 32 36 44 44 37 25 18 20 18 14 16 18 18 20 21 19 17 17 18 17 18 19 21 24 26 28 29 30 32 35 40 45 48 51 53 54 55 56 57 59 61 62 64 67 71 74 75 76 77 82 87 88 89 89 88 88 88 88 88 87 86 79 75 76 77 77
17 18 20 20 16 14 16 19 18 17 19 21 22 25 26 25 29 28 28 33 32 34 40 42 34 20 13 17 15 13 17 18 17 20 22 20 18 18 18 19 21 23 25 28 31 32 32 32 34 38 43 48 51 53 56 58 59 60 60 60 60 61 63 65 68 69 71 73 76 83 90 91 90 90 90 90 91 92 92 91 89 84 79 80 81 80
19 21 21 19 16 14 16 19 18 19 21 21 22 25 27 29 29 26 28 34 36 35 36 40 42 26 14 16 15 14 18 18 18 21 23 21 19 20 21 22 25 27 29 33 34 33 33 34 37 42 46 50 54 57 59 59 59 58 58 58 59 59 58 58 60 62 65 69 72 78 83 85 85 86 88 90 93 96 96 94 90 86 81 80 80 80
22 23 21 20 19 15 16 19 19 21 23 23 23 23 24 27 26 26 30 34 38 38 32 38 44 29 15 21 21 18 20 21 21 22 22 22 22 23 25 28 29 31 33 35 35 34 36 38 42 45 49 54 57 58 58 56 56 56 55 55 55 55 55 56 59 60 61 63 66 69 73 76 76 76 78 81 86 91 93 91 88 84 80 79 77 79
19 20 20 21 20 16 20 23 22 23 25 24 25 24 22 25 30 31 33 37 43 39 31 37 40 24 19 26 24 21 25 25 24 24 24 26 27 28 31 31 31 33 36 37 36 36 39 43 47 53 57 60 60 58 57 57 57 57 56 58 61 64 66 68 68 68 66 66 68 68 69 71 70 69 72 76 80 85 86 86 86 83 79 78 76 79
20 22 20 18 18 18 20 21 21 24 26 25 26 24 22 26 30 30 34 43 46 39 36 42 37 22 19 24 24 25 28 27 27 27 28 31 33 34 34 33 34 38 39 38 38 40 44 49 56 61 62 62 61 61 61 59 58 59 62 67 71 72 73 73 72 72 71 71 72 69 66 69 71 72 77 82 85 87 87 86 86 84 81 79 76 79
28 28 23 20 19 18 17 15 19 25 26 24 25 25 23 26 28 31 39 43 39 39 41 37 31 26 24 25 26 27 28 30 31 31 33 36 38 37 37 39 42 43 41 41 43 47 53 59 63 64 64 63 64 63 61 60 59 60 62 64 64 62 62 62 63 66 71 73 74 71 68 70 76 80 84 89 90 89 88 88 89 88 85 81 78 80
31 28 27 27 23 20 19 18 21 27 27 26 28 26 25 28 32 35 38 33 30 38 40 29 28 35 32 27 28 29 30 34 34 35 38 40 39 39 43 46 46 44 44 47 52 58 64 66 65 64 64 64 64 62 60 59 57 57 57 56 55 55 55 55 55 58 67 74 74 73 72 73 79 85 89 90 89 87 89 91 90 89 88 85 81 82
29 27 29 30 27 25 26 25 27 30 30 30 32 30 28 33 38 37 34 30 31 38 34 25 29 36 33 30 31 33 37 39 39 39 40 41 43 47 49 47 46 47 52 56 62 67 69 67 64 64 63 62 59 57 55 54 53 53 53 52 52 53 54 54 53 55 63 72 75 73 74 76 80 85 87 86 86 89 93 94 92 90 90 87 84 85
25 29 34 34 31 31 32 30 31 32 32 33 35 35 34 37 39 39 36 33 35 38 35 32 35 35 34 35 37 39 43 43 41 40 41 45 51 52 51 50 52 56 61 66 70 70 67 64 63 61 58 54 51 50 49 49 49 50 53 53 53 52 53 53 53 56 63 72 75 74 75 79 82 83 84 86 90 95 96 94 92 91 89 88 87 87
23 31 39 37 33 32 32 32 30 32 36 38 37 37 35 34 37 40 39 38 39 41 40 40 43 41 38 40 43 45 46 43 41 43 48 54 56 55 54 56 60 64 68 70 69 66 63 61 58 52 47 44 41 40 41 40 38 40 45 50 53 54 55 54 53 59 69 75 76 77 78 81 82 84 88 93 97 99 97 94 93 91 90 90 89 86
24 31 36 35 32 30 31 33 33 34 38 41 41 38 34 34 38 41 41 42 43 43 42 43 45 43 41 42 44 44 42 43 48 54 58 59 58 58 60 63 67 70 70 68 65 62 59 54 47 41 37 34 33 32 32 30 29 32 37 44 50 54 56 56 57 66 75 78 78 79 80 82 86 91 97 100 100 98 96 95 93 92 92 90 86 83
31 32 33 36 36 33 33 36 36 37 40 41 40 37 34 35 39 41 40 41 43 43 43 43 43 43 45 45 44 42 43 50 59 62 61 59 59 62 65 68 71 71 68 66 63 59 52 44 37 33 31 31 31 30 28 28 30 36 42 48 54 57 56 57 62 69 76 78 78 79 81 84 90 96 99 100 99 98 96 94 93 93 91 87 84 83
39 34 34 40 42 40 39 39 39 40 42 39 36 35 34 35 37 39 38 39 42 44 45 46 47 48 48 47 46 48 54 63 65 61 59 62 64 66 67 69 69 68 66 64 59 52 43 36 32 30 31 31 29 27 27 28 33 41 47 51 56 59 59 62 69 73 76 77 77 78 81 86 91 95 98 99 98 96 95 94 93 91 87 85 84 86
42 37 38 46 48 46 45 43 39 38 40 39 35 36 37 37 38 40 39 41 43 45 47 49 50 50 51 51 53 58 65 67 62 58 60 64 66 67 68 69 68 67 64 59 51 42 36 32 31 30 31 28 25 26 28 31 36 42 46 49 53 58 64 70 75 77 78 77 77 80 83 87 92 95 97 97 96 95 94 93 91 88 86 87 88 88
40 40 42 48 50 49 49 47 40 35 36 37 35 38 41 41 41 42 43 44 46 46 48 49 51 54 56 57 59 64 66 63 58 60 62 64 66 69 70 68 67 64 59 50 42 36 32 32 32 30 29 27 25 27 29 31 38 43 46 47 50 56 65 72 76 77 77 76 79 83 87 91 95 97 98 97 96 95 93 91 90 89 89 90 90 90
37 41 43 47 51 50 51 51 43 36 37 37 35 39 43 42 42 44 45 46 48 48 49 52 55 57 58 60 65 66 62 56 55 60 64 66 70 70 69 69 66 59 51 42 35 33 32 32 31 29 27 26 25 26 28 31 37 42 45 47 50 55 63 68 71 74 76 78 82 88 94 97 99 99 99 96 94 92 91 91 91 91 91 91 90 90
36 40 42 46 51 53 53 55 51 44 42 40 40 44 46 45 45 47 49 51 51 50 52 57 59 59 61 67 70 64 57 52 52 59 67 70 69 68 68 67 61 51 42 36 32 32 32 31 29 28 27 25 24 25 29 32 37 42 44 46 49 54 59 63 67 71 75 79 84 90 96 99 99 98 96 93 92 91 91 91 91 91 91 91 91 90
38 42 44 46 53 57 56 57 56 49 43 41 43 48 50 48 48 50 53 56 55 53 55 60 62 64 71 74 69 62 59 56 55 62 69 69 66 66 65 59 51 43 37 33 32 33 31 30 28 27 25 23 24 27 30 33 38 43 44 45 47 50 54 59 64 69 73 78 82 87 92 95 95 94 93 91 91 91 91 91 92 92 92 92 91 90
42 46 47 50 55 58 60 63 60 50 43 43 46 50 52 51 52 57 61 59 55 57 61 64 68 74 78 73 66 62 64 65 66 70 70 66 64 63 59 51 44 38 34 33 33 32 30 29 27 25 23 24 26 29 31 34 38 41 42 43 44 46 49 55 61 65 69 72 75 80 84 87 90 91 91 91 91 91 92 92 92 92 92 92 91 90
47 48 48 51 54 56 61 66 61 50 46 48 50 51 53 53 56 62 65 61 57 61 68 72 78 81 76 68 63 64 67 71 74 73 68 63 61 58 53 46 40 35 33 33 33 31 29 27 25 24 24 26 29 32 33 35 37 38 39 40 42 44 47 51 56 61 63 65 67 70 74 78 82 85 87 88 89 90 91 91 91 91 90 90 89 88
44 49 48 49 52 52 57 63 61 51 45 47 51 53 54 56 62 65 64 62 62 68 75 80 83 78 69 63 63 66 70 74 74 70 65 62 59 54 48 41 37 34 34 33 31 29 27 25 24 24 26 29 32 33 35 37 38 38 39 40 40 42 44 47 50 54 57 59 61 64 67 71 75 78 81 83 84 86 88 88 87 87 87 87 87 87
38 44 46 48 47 47 52 60 60 53 45 45 51 56 56 58 63 63 62 65 69 74 81 83 78 70 63 63 66 70 74 74 70 66 62 60 57 51 44 38 36 35 34 33 30 28 25 24 24 25 27 31 33 34 35 37 37 38 38 39 39 41 42 45 48 51 54 57 59 61 64 66 68 71 73 76 79 81 83 84 84 84 85 85 85 85
38 40 43 43 41 41 46 51 51 47 45 46 50 55 57 59 61 63 66 70 74 79 83 80 71 65 63 66 70 74 74 70 65 62 61 58 53 47 40 37 36 36 34 32 28 25 24 24 25 26 28 31 32 33 35 36 36 36 37 37 39 40 41 44 46 49 52 54 57 60 61 63 64 66 67 69 71 74 76 77 78 80 80 81 81 82
40 40 39 38 37 37 38 39 40 40 43 47 50 53 56 59 63 66 70 73 77 82 82 74 66 64 67 71 74 74 70 65 62 61 59 55 49 44 39 38 37 35 32 29 25 24 24 24 25 26 27 28 30 31 33 35 35 36 36 37 39 39 41 42 45 47 49 51 54 56 58 60 62 63 64 66 67 68 70 70 72 73 75 76 76 77
39 38 37 36 37 36 32 32 35 37 40 46 51 55 58 61 64 68 71 76 81 83 77 68 64 67 72 74 74 71 66 62 62 60 56 51 46 42 39 38 37 34 30 26 24 24 24 24 24 24 25 26 28 30 32 34 36 37 37 38 39 40 41 43 44 45 47 49 51 53 55 57 59 60 62 64 65 66 67 68 69 71 73 74 74 74
39 37 37 36 36 35 32 31 34 36 38 44 50 55 59 62 65 70 74 80 84 80 72 67 68 72 75 75 72 67 63 62 61 58 53 48 45 41 40 38 34 30 26 24 24 24 24 23 23 24 25 26 28 30 32 34 36 37 38 39 40 41 43 44 45 46 47 48 49 51 52 54 56 57 60 61 63 65 66 67 68 70 72 73 73 74
41 39 38 37 35 33 32 31 33 35 39 44 49 54 58 63 67 72 77 83 83 77 70 69 73 76 77 74 69 65 63 62 59 55 51 47 42 41 39 35 30 26 25 23 22 22 22 22 22 23 25 27 28 31 33 34 36 37 39 40 41 42 43 44 46 47 48 49 50 52 53 54 55 56 58 60 62 63 64 66 67 69 71 72 72 73
41 39 39 38 36 33 33 34 35 38 42 46 50 55 60 65 70 76 82 85 81 74 71 74 77 78 76 71 67 64 62 61 57 53 48 44 40 38 35 31 27 25 23 21 21 21 22 22 23 24 25 27 29 32 34 35 37 38 39 41 42 43 44 46 47 48 50 52 53 55 56 57 58 59 60 62 64 65 67 68 68 69 71 73 74 75
42 40 39 39 39 37 36 35 36 40 44 47 51 57 63 68 74 81 86 84 77 73 75 78 79 77 73 68 65 63 61 59 55 50 45 41 37 35 31 28 25 23 21 20 20 21 21 22 23 24 26 28 30 33 35 36 37 39 40 42 43 44 45 46 48 50 51 53 54 56 57 58 59 60 61 61 62 64 67 70 71 71 71 73 76 78
42 39 38 39 39 37 34 34 37 40 44 48 54 60 67 72 79 86 86 81 76 76 78 80 80 76 71 67 64 62 60 57 53 47 43 39 35 31 29 27 24 21 20 20 20 20 21 22 24 25 27 29 31 34 36 37 38 40 42 43 44 45 46 47 48 49 50 51 53 54 55 56 57 58 59 60 61 62 64 67 71 74 74 73 74 77